Private Wetterstation Wechselburg
Wetterdaten: Donnerstag, 15.07.2021
Datum Zeit Temp. +2m Bodentemp. Temp.+5cm Temp. Wind Windchill X Diff Temp. Feuchte +2m Feuchte +5cm Luftdruck Regen Wind Richtung Richtung Sonnenschein Taupunkt Windchill Windben
15.07.2021 00:00 16,4 C 20,7 C 16,1 C 16,0 C 15,2 C 0,0 C 84 % 88 % 1008,7 hPa 0,0 l/m 0,0 km/h (0 Bft) O-NO 67 0 min 13,7 C 15,2 C 0,0 km/h (0 Bft)
15.07.2021 00:05 16,3 C 20,7 C 15,9 C 15,9 C 15,0 C 0,0 C 84 % 88 % 1008,7 hPa 0,0 l/m 0,0 km/h (0 Bft) O-NO 67 0 min 13,6 C 15,0 C 0,0 km/h (0 Bft)
15.07.2021 00:10 16,3 C 20,7 C 15,9 C 15,8 C 14,9 C 0,0 C 84 % 88 % 1008,7 hPa 0,0 l/m 0,0 km/h (0 Bft) O-NO 67 0 min 13,6 C 14,9 C 0,0 km/h (0 Bft)
15.07.2021 00:15 16,1 C 20,7 C 15,7 C 15,7 C 14,8 C 0,0 C 84 % 88 % 1008,6 hPa 0,0 l/m 0,0 km/h (0 Bft) O-NO 67 0 min 13,4 C 14,8 C 0,0 km/h (0 Bft)
15.07.2021 00:20 16,1 C 20,7 C 15,7 C 15,7 C 14,8 C 0,0 C 84 % 89 % 1008,6 hPa 0,0 l/m 0,2 km/h (0 Bft) O-NO 67 0 min 13,4 C 14,8 C 2,1 km/h (1 Bft)
15.07.2021 00:25 15,9 C 20,7 C 15,5 C 15,5 C 14,8 C 0,0 C 85 % 89 % 1008,6 hPa 0,0 l/m 1,1 km/h (1 Bft) O-NO 67 0 min 13,4 C 14,8 C 2,4 km/h (1 Bft)
15.07.2021 00:30 15,9 C 20,7 C 15,5 C 15,6 C 14,9 C 0,0 C 85 % 89 % 1008,6 hPa 0,0 l/m 1,6 km/h (1 Bft) O-NO 67 0 min 13,4 C 14,9 C 0,0 km/h (0 Bft)
15.07.2021 00:35 15,9 C 20,7 C 15,4 C 15,5 C 14,7 C 0,0 C 85 % 89 % 1009,4 hPa 0,0 l/m 0,5 km/h (0 Bft) O-NO 67 0 min 13,4 C 14,7 C 0,0 km/h (0 Bft)
15.07.2021 00:40 15,7 C 20,7 C 15,4 C 15,4 C 14,7 C 0,0 C 85 % 89 % 1009,4 hPa 0,0 l/m 0,0 km/h (0 Bft) O-NO 67 0 min 13,2 C 14,7 C 0,0 km/h (0 Bft)
15.07.2021 00:45 15,7 C 20,7 C 15,4 C 15,4 C 14,8 C 0,0 C 85 % 90 % 1009,4 hPa 0,0 l/m 0,0 km/h (0 Bft) O-NO 67 0 min 13,2 C 14,8 C 0,0 km/h (0 Bft)
15.07.2021 00:50 15,7 C 20,7 C 15,5 C 15,4 C 14,9 C 0,0 C 86 % 90 % 1009,4 hPa 0,0 l/m 0,0 km/h (0 Bft) O-NO 67 0 min 13,4 C 14,9 C 0,0 km/h (0 Bft)
15.07.2021 00:55 15,7 C 20,7 C 15,5 C 15,5 C 15,0 C 0,0 C 86 % 90 % 1009,6 hPa 0,0 l/m 0,0 km/h (0 Bft) O-NO 67 0 min 13,4 C 15,0 C 0,0 km/h (0 Bft)
15.07.2021 01:00 15,7 C 20,7 C 15,6 C 15,5 C 15,1 C 0,0 C 86 % 90 % 1009,6 hPa 0,0 l/m 0,0 km/h (0 Bft) O-NO 67 0 min 13,4 C 15,1 C 0,0 km/h (0 Bft)
15.07.2021 01:05 15,7 C 20,6 C 15,6 C 15,5 C 15,2 C 0,0 C 86 % 90 % 1009,6 hPa 0,0 l/m 0,0 km/h (0 Bft) O-NO 67 0 min 13,4 C 15,2 C 0,0 km/h (0 Bft)
15.07.2021 01:10 15,6 C 20,6 C 15,5 C 15,4 C 15,1 C 0,0 C 86 % 90 % 1009,6 hPa 0,0 l/m 0,0 km/h (0 Bft) O-NO 67 0 min 13,3 C 15,1 C 0,0 km/h (0 Bft)
15.07.2021 01:15 15,6 C 20,6 C 15,5 C 15,4 C 15,0 C 0,0 C 86 % 90 % 1009,8 hPa 0,0 l/m 0,0 km/h (0 Bft) O-NO 67 0 min 13,3 C 15,0 C 0,0 km/h (0 Bft)
15.07.2021 01:20 15,6 C 20,6 C 15,4 C 15,4 C 14,9 C 0,0 C 86 % 90 % 1009,8 hPa 0,0 l/m 0,0 km/h (0 Bft) O-NO 67 0 min 13,3 C 14,9 C 0,0 km/h (0 Bft)
15.07.2021 01:25 15,6 C 20,6 C 15,3 C 15,3 C 14,8 C 0,0 C 86 % 90 % 1009,8 hPa 0,0 l/m 0,0 km/h (0 Bft) O-NO 67 0 min 13,3 C 14,8 C 0,0 km/h (0 Bft)
15.07.2021 01:30 15,5 C 20,6 C 15,4 C 15,3 C 14,8 C 0,0 C 86 % 90 % 1009,8 hPa 0,0 l/m 0,0 km/h (0 Bft) O-NO 67 0 min 13,2 C 14,8 C 0,0 km/h (0 Bft)
15.07.2021 01:35 15,5 C 20,6 C 15,4 C 15,3 C 14,9 C 0,0 C 87 % 90 % 1009,8 hPa 0,0 l/m 0,0 km/h (0 Bft) O-NO 67 0 min 13,3 C 14,9 C 0,0 km/h (0 Bft)
15.07.2021 01:40 15,5 C 20,6 C 15,5 C 15,3 C 14,9 C 0,0 C 87 % 90 % 1009,8 hPa 0,0 l/m 0,0 km/h (0 Bft) O-NO 67 0 min 13,3 C 14,9 C 0,0 km/h (0 Bft)
15.07.2021 01:45 15,6 C 20,6 C 15,5 C 15,4 C 15,0 C 0,0 C 87 % 90 % 1009,8 hPa 0,0 l/m 0,0 km/h (0 Bft) O-NO 67 0 min 13,4 C 15,0 C 0,0 km/h (0 Bft)
15.07.2021 01:50 15,5 C 20,6 C 15,5 C 15,3 C 15,0 C 0,0 C 87 % 90 % 1009,8 hPa 0,0 l/m 0,0 km/h (0 Bft) O-NO 67 0 min 13,3 C 15,0 C 0,0 km/h (0 Bft)
15.07.2021 01:55 15,5 C 20,6 C 15,5 C 15,3 C 15,0 C 0,0 C 87 % 90 % 1009,7 hPa 0,0 l/m 0,0 km/h (0 Bft) O-NO 67 0 min 13,3 C 15,0 C 0,0 km/h (0 Bft)
15.07.2021 02:00 15,5 C 20,6 C 15,5 C 15,3 C 15,0 C 0,0 C 87 % 90 % 1009,7 hPa 0,0 l/m 0,0 km/h (0 Bft) O-NO 67 0 min 13,3 C 15,0 C 0,0 km/h (0 Bft)
15.07.2021 02:05 15,5 C 20,6 C 15,5 C 15,3 C 15,0 C 0,0 C 87 % 90 % 1009,7 hPa 0,0 l/m 0,0 km/h (0 Bft) O-NO 67 0 min 13,3 C 15,0 C 0,0 km/h (0 Bft)
15.07.2021 02:10 15,5 C 20,6 C 15,5 C 15,4 C 15,1 C 0,0 C 87 % 90 % 1009,7 hPa 0,0 l/m 0,0 km/h (0 Bft) O-NO 67 0 min 13,3 C 15,1 C 0,0 km/h (0 Bft)
15.07.2021 02:15 15,5 C 20,5 C 15,5 C 15,4 C 15,2 C 0,0 C 87 % 90 % 1009,9 hPa 0,0 l/m 0,0 km/h (0 Bft) O-NO 67 0 min 13,3 C 15,2 C 0,0 km/h (0 Bft)
15.07.2021 02:20 15,5 C 20,6 C 15,6 C 15,4 C 15,3 C 0,0 C 87 % 91 % 1009,9 hPa 0,0 l/m 0,0 km/h (0 Bft) O-NO 67 0 min 13,3 C 15,3 C 0,0 km/h (0 Bft)
15.07.2021 02:25 15,5 C 20,5 C 15,6 C 15,5 C 15,4 C 0,0 C 87 % 91 % 1009,9 hPa 0,0 l/m 0,0 km/h (0 Bft) O-NO 67 0 min 13,3 C 15,4 C 0,0 km/h (0 Bft)
15.07.2021 02:30 15,5 C 20,5 C 15,6 C 15,5 C 15,4 C 0,0 C 87 % 91 % 1009,9 hPa 0,0 l/m 0,0 km/h (0 Bft) O-NO 67 0 min 13,3 C 15,4 C 0,0 km/h (0 Bft)
15.07.2021 02:35 15,5 C 20,5 C 15,7 C 15,5 C 15,5 C 0,0 C 87 % 91 % 1009,9 hPa 0,0 l/m 0,0 km/h (0 Bft) O-NO 67 0 min 13,3 C 15,5 C 0,0 km/h (0 Bft)
15.07.2021 02:40 15,5 C 20,5 C 15,7 C 15,5 C 15,5 C 0,0 C 87 % 91 % 1009,9 hPa 0,0 l/m 0,0 km/h (0 Bft) O-NO 67 0 min 13,3 C 15,5 C 0,0 km/h (0 Bft)
15.07.2021 02:45 15,5 C 20,5 C 15,7 C 15,7 C 15,7 C 0,2 C 87 % 91 % 1009,9 hPa 0,0 l/m 0,0 km/h (0 Bft) O-NO 67 0 min 13,3 C 15,7 C 0,0 km/h (0 Bft)
15.07.2021 02:50 15,6 C 20,5 C 15,7 C 15,7 C 15,7 C 0,1 C 87 % 91 % 1009,9 hPa 0,0 l/m 0,0 km/h (0 Bft) O-NO 67 0 min 13,4 C 15,7 C 0,0 km/h (0 Bft)
15.07.2021 02:55 15,6 C 20,5 C 15,7 C 15,7 C 15,7 C 0,1 C 87 % 91 % 1010,1 hPa 0,0 l/m 0,0 km/h (0 Bft) O-NO 67 0 min 13,4 C 15,7 C 0,0 km/h (0 Bft)
15.07.2021 03:00 15,6 C 20,5 C 15,7 C 15,7 C 15,7 C 0,1 C 87 % 91 % 1010,1 hPa 0,0 l/m 0,0 km/h (0 Bft) O-NO 67 0 min 13,4 C 15,7 C 0,0 km/h (0 Bft)
15.07.2021 03:05 15,6 C 20,4 C 15,7 C 15,7 C 15,7 C 0,1 C 87 % 91 % 1010,1 hPa 0,0 l/m 0,0 km/h (0 Bft) O-NO 67 0 min 13,4 C 15,7 C 0,0 km/h (0 Bft)
15.07.2021 03:10 15,6 C 20,4 C 15,7 C 15,6 C 15,6 C 0,0 C 87 % 91 % 1010,1 hPa 0,0 l/m 0,0 km/h (0 Bft) O-NO 67 0 min 13,4 C 15,6 C 0,0 km/h (0 Bft)
15.07.2021 03:15 15,6 C 20,4 C 15,7 C 15,6 C 15,6 C 0,0 C 87 % 91 % 1010,2 hPa 0,0 l/m 0,0 km/h (0 Bft) O-NO 67 0 min 13,4 C 15,6 C 0,0 km/h (0 Bft)
15.07.2021 03:20 15,6 C 20,5 C 15,7 C 15,6 C 15,6 C 0,0 C 87 % 91 % 1010,2 hPa 0,0 l/m 0,0 km/h (0 Bft) O-NO 67 0 min 13,4 C 15,6 C 0,0 km/h (0 Bft)
15.07.2021 03:25 15,6 C 20,4 C 15,8 C 15,6 C 15,6 C 0,0 C 87 % 91 % 1010,2 hPa 0,0 l/m 0,0 km/h (0 Bft) O-NO 67 0 min 13,4 C 15,6 C 0,0 km/h (0 Bft)
15.07.2021 03:30 15,7 C 20,4 C 15,8 C 15,7 C 15,6 C 0,0 C 87 % 91 % 1010,2 hPa 0,0 l/m 0,0 km/h (0 Bft) O-NO 67 0 min 13,5 C 15,6 C 0,0 km/h (0 Bft)
15.07.2021 03:35 15,7 C 20,4 C 15,7 C 15,6 C 15,5 C 0,0 C 87 % 91 % 1010,4 hPa 0,0 l/m 0,0 km/h (0 Bft) O-NO 67 0 min 13,5 C 15,5 C 0,0 km/h (0 Bft)
15.07.2021 03:40 15,7 C 20,4 C 15,7 C 15,6 C 15,5 C 0,0 C 87 % 91 % 1010,4 hPa 0,0 l/m 0,0 km/h (0 Bft) O-NO 67 0 min 13,5 C 15,5 C 0,0 km/h (0 Bft)
15.07.2021 03:45 15,7 C 20,4 C 15,7 C 15,6 C 15,5 C 0,0 C 87 % 91 % 1010,4 hPa 0,0 l/m 0,0 km/h (0 Bft) O-NO 67 0 min 13,5 C 15,5 C 0,0 km/h (0 Bft)
15.07.2021 03:50 15,7 C 20,4 C 15,7 C 15,6 C 15,5 C 0,0 C 87 % 91 % 1010,4 hPa 0,0 l/m 0,0 km/h (0 Bft) O-NO 67 0 min 13,5 C 15,5 C 0,0 km/h (0 Bft)
15.07.2021 03:55 15,6 C 20,4 C 15,6 C 15,6 C 15,6 C 0,0 C 87 % 91 % 1010,1 hPa 0,0 l/m 0,0 km/h (0 Bft) O-NO 67 0 min 13,4 C 15,6 C 0,0 km/h (0 Bft)
15.07.2021 04:00 15,6 C 20,4 C 15,7 C 15,6 C 15,5 C 0,0 C 88 % 91 % 1010,1 hPa 0,0 l/m 0,0 km/h (0 Bft) O-NO 67 0 min 13,6 C 15,5 C 0,0 km/h (0 Bft)
15.07.2021 04:05 15,6 C 20,4 C 15,7 C 15,6 C 15,5 C 0,0 C 88 % 91 % 1010,1 hPa 0,0 l/m 0,0 km/h (0 Bft) O-NO 67 0 min 13,6 C 15,5 C 0,0 km/h (0 Bft)
15.07.2021 04:10 15,6 C 20,4 C 15,7 C 15,6 C 15,6 C 0,0 C 87 % 91 % 1010,1 hPa 0,0 l/m 0,0 km/h (0 Bft) O-NO 67 0 min 13,4 C 15,6 C 0,0 km/h (0 Bft)
15.07.2021 04:15 15,6 C 20,4 C 15,7 C 15,6 C 15,5 C 0,0 C 87 % 91 % 1010,1 hPa 0,0 l/m 0,0 km/h (0 Bft) O-NO 67 0 min 13,4 C 15,5 C 0,0 km/h (0 Bft)
15.07.2021 04:20 15,6 C 20,4 C 15,7 C 15,6 C 15,6 C 0,0 C 87 % 91 % 1010,1 hPa 0,0 l/m 0,0 km/h (0 Bft) O-NO 67 0 min 13,4 C 15,6 C 0,0 km/h (0 Bft)
15.07.2021 04:25 15,6 C 20,4 C 15,7 C 15,6 C 15,6 C 0,0 C 88 % 91 % 1010,1 hPa 0,0 l/m 0,0 km/h (0 Bft) O-NO 67 0 min 13,6 C 15,6 C 0,0 km/h (0 Bft)
15.07.2021 04:30 15,6 C 20,4 C 15,7 C 15,6 C 15,6 C 0,0 C 88 % 91 % 1010,1 hPa 0,0 l/m 0,0 km/h (0 Bft) O-NO 67 0 min 13,6 C 15,6 C 0,0 km/h (0 Bft)
15.07.2021 04:35 15,6 C 20,4 C 15,8 C 15,6 C 15,6 C 0,0 C 88 % 91 % 1010,0 hPa 0,0 l/m 0,0 km/h (0 Bft) O-NO 67 0 min 13,6 C 15,6 C 0,0 km/h (0 Bft)
15.07.2021 04:40 15,6 C 20,4 C 15,8 C 15,7 C 15,7 C 0,1 C 88 % 91 % 1010,0 hPa 0,0 l/m 0,0 km/h (0 Bft) O-NO 67 0 min 13,6 C 15,7 C 0,0 km/h (0 Bft)
15.07.2021 04:45 15,6 C 20,4 C 15,8 C 15,6 C 15,6 C 0,0 C 88 % 91 % 1010,0 hPa 0,0 l/m 0,0 km/h (0 Bft) O-NO 67 0 min 13,6 C 15,6 C 0,0 km/h (0 Bft)
15.07.2021 04:50 15,6 C 20,4 C 15,7 C 15,6 C 15,6 C 0,0 C 88 % 91 % 1010,0 hPa 0,0 l/m 0,0 km/h (0 Bft) O-NO 67 0 min 13,6 C 15,6 C 0,0 km/h (0 Bft)
15.07.2021 04:55 15,6 C 20,3 C 15,8 C 15,6 C 15,5 C 0,0 C 88 % 91 % 1009,8 hPa 0,0 l/m 0,0 km/h (0 Bft) O-NO 67 0 min 13,6 C 15,5 C 0,0 km/h (0 Bft)
15.07.2021 05:00 15,5 C 20,3 C 15,7 C 15,5 C 15,5 C 0,0 C 88 % 91 % 1009,8 hPa 0,0 l/m 0,0 km/h (0 Bft) O-NO 67 0 min 13,5 C 15,5 C 0,0 km/h (0 Bft)
15.07.2021 05:05 15,5 C 20,3 C 15,5 C 15,5 C 15,4 C 0,0 C 88 % 91 % 1009,8 hPa 0,0 l/m 0,0 km/h (0 Bft) O-NO 67 0 min 13,5 C 15,4 C 0,0 km/h (0 Bft)
15.07.2021 05:10 15,5 C 20,3 C 15,6 C 15,5 C 15,4 C 0,0 C 88 % 91 % 1009,8 hPa 0,0 l/m 0,0 km/h (0 Bft) O-NO 67 0 min 13,5 C 15,4 C 0,0 km/h (0 Bft)
15.07.2021 05:15 15,5 C 20,3 C 15,6 C 15,4 C 15,2 C 0,0 C 88 % 91 % 1010,0 hPa 0,0 l/m 0,0 km/h (0 Bft) O-NO 67 0 min 13,5 C 15,2 C 0,0 km/h (0 Bft)
15.07.2021 05:20 15,5 C 20,3 C 15,5 C 15,3 C 15,0 C 0,0 C 88 % 91 % 1010,0 hPa 0,0 l/m 0,0 km/h (0 Bft) O-NO 67 0 min 13,5 C 15,0 C 0,0 km/h (0 Bft)
15.07.2021 05:25 15,5 C 20,3 C 15,5 C 15,3 C 15,0 C 0,0 C 88 % 91 % 1010,0 hPa 0,0 l/m 0,0 km/h (0 Bft) O-NO 67 0 min 13,5 C 15,0 C 0,0 km/h (0 Bft)
15.07.2021 05:30 15,4 C 20,3 C 15,5 C 15,3 C 15,1 C 0,0 C 87 % 92 % 1010,0 hPa 0,0 l/m 0,0 km/h (0 Bft) O-NO 67 0 min 13,2 C 15,1 C 0,0 km/h (0 Bft)
15.07.2021 05:35 15,4 C 20,3 C 15,6 C 15,3 C 15,2 C 0,0 C 87 % 92 % 1009,9 hPa 0,0 l/m 0,0 km/h (0 Bft) O-NO 67 0 min 13,2 C 15,2 C 0,0 km/h (0 Bft)
15.07.2021 05:40 15,3 C 20,3 C 15,7 C 15,4 C 15,4 C 0,1 C 87 % 92 % 1009,9 hPa 0,0 l/m 0,0 km/h (0 Bft) O-NO 67 0 min 13,1 C 15,4 C 0,0 km/h (0 Bft)
15.07.2021 05:45 15,3 C 20,3 C 15,7 C 15,5 C 15,5 C 0,2 C 87 % 92 % 1009,9 hPa 0,0 l/m 0,0 km/h (0 Bft) O-NO 67 0 min 13,1 C 15,5 C 0,0 km/h (0 Bft)
15.07.2021 05:50 15,3 C 20,3 C 15,7 C 15,5 C 15,5 C 0,2 C 87 % 92 % 1009,9 hPa 0,0 l/m 0,0 km/h (0 Bft) O-NO 67 0 min 13,1 C 15,5 C 0,0 km/h (0 Bft)
15.07.2021 05:55 15,4 C 20,3 C 15,9 C 15,7 C 15,7 C 0,3 C 87 % 92 % 1009,9 hPa 0,0 l/m 0,0 km/h (0 Bft) O-NO 67 0 min 13,2 C 15,7 C 0,0 km/h (0 Bft)
15.07.2021 06:00 15,4 C 20,3 C 15,9 C 15,9 C 15,9 C 0,5 C 87 % 92 % 1009,9 hPa 0,0 l/m 0,0 km/h (0 Bft) O-NO 67 0 min 13,2 C 15,9 C 0,0 km/h (0 Bft)
15.07.2021 06:05 15,5 C 20,3 C 15,9 C 16,1 C 16,1 C 0,6 C 88 % 92 % 1009,9 hPa 0,0 l/m 0,0 km/h (0 Bft) O-NO 67 0 min 13,5 C 16,1 C 0,0 km/h (0 Bft)
15.07.2021 06:10 15,5 C 20,3 C 16,0 C 16,3 C 16,3 C 0,8 C 88 % 92 % 1009,9 hPa 0,0 l/m 0,0 km/h (0 Bft) O-NO 67 0 min 13,5 C 16,3 C 0,0 km/h (0 Bft)
15.07.2021 06:15 15,4 C 20,3 C 16,1 C 16,4 C 16,4 C 1,0 C 87 % 92 % 1010,2 hPa 0,0 l/m 0,0 km/h (0 Bft) O-NO 67 0 min 13,2 C 16,4 C 0,0 km/h (0 Bft)
15.07.2021 06:20 15,5 C 20,3 C 16,1 C 16,5 C 16,5 C 1,0 C 88 % 92 % 1010,2 hPa 0,0 l/m 0,0 km/h (0 Bft) O-NO 67 0 min 13,5 C 16,5 C 0,0 km/h (0 Bft)
15.07.2021 06:25 15,5 C 20,3 C 16,2 C 16,6 C 16,6 C 1,1 C 88 % 91 % 1010,2 hPa 0,0 l/m 0,0 km/h (0 Bft) O-NO 67 0 min 13,5 C 16,6 C 0,0 km/h (0 Bft)
15.07.2021 06:30 15,5 C 20,3 C 16,3 C 16,6 C 16,6 C 1,1 C 88 % 92 % 1010,2 hPa 0,0 l/m 0,0 km/h (0 Bft) O-NO 67 0 min 13,5 C 16,6 C 0,0 km/h (0 Bft)
15.07.2021 06:35 15,6 C 20,2 C 16,3 C 16,7 C 16,7 C 1,1 C 88 % 91 % 1010,4 hPa 0,0 l/m 0,0 km/h (0 Bft) O-NO 67 0 min 13,6 C 16,7 C 0,0 km/h (0 Bft)
15.07.2021 06:40 15,7 C 20,2 C 16,3 C 16,7 C 16,7 C 1,0 C 88 % 91 % 1010,4 hPa 0,0 l/m 0,0 km/h (0 Bft) O-NO 67 0 min 13,7 C 16,7 C 0,0 km/h (0 Bft)
15.07.2021 06:45 15,6 C 20,2 C 16,3 C 16,7 C 16,7 C 1,1 C 88 % 91 % 1010,4 hPa 0,0 l/m 0,0 km/h (0 Bft) O-NO 67 0 min 13,6 C 16,7 C 0,0 km/h (0 Bft)
15.07.2021 06:50 15,7 C 20,2 C 16,3 C 16,7 C 16,7 C 1,0 C 88 % 91 % 1010,4 hPa 0,0 l/m 0,0 km/h (0 Bft) O-NO 67 0 min 13,7 C 16,7 C 0,0 km/h (0 Bft)
15.07.2021 06:55 15,7 C 20,2 C 16,3 C 16,7 C 16,7 C 1,0 C 88 % 91 % 1010,4 hPa 0,0 l/m 0,0 km/h (0 Bft) O-NO 67 0 min 13,7 C 16,7 C 0,0 km/h (0 Bft)
15.07.2021 07:00 15,7 C 20,2 C 16,3 C 16,6 C 16,6 C 0,9 C 88 % 91 % 1010,4 hPa 0,0 l/m 0,0 km/h (0 Bft) O-NO 67 0 min 13,7 C 16,6 C 0,0 km/h (0 Bft)
15.07.2021 07:05 15,7 C 20,2 C 16,3 C 16,7 C 16,7 C 1,0 C 88 % 91 % 1010,4 hPa 0,0 l/m 0,0 km/h (0 Bft) O-NO 67 0 min 13,7 C 16,7 C 0,0 km/h (0 Bft)
15.07.2021 07:10 15,8 C 20,2 C 16,3 C 16,6 C 16,6 C 0,8 C 88 % 91 % 1010,4 hPa 0,0 l/m 0,0 km/h (0 Bft) O-NO 67 0 min 13,8 C 16,6 C 0,0 km/h (0 Bft)
15.07.2021 07:15 15,9 C 20,2 C 16,4 C 16,4 C 16,4 C 0,5 C 88 % 91 % 1010,4 hPa 0,0 l/m 0,0 km/h (0 Bft) O-NO 67 0 min 13,9 C 16,4 C 0,0 km/h (0 Bft)
15.07.2021 07:20 15,8 C 20,2 C 16,3 C 16,3 C 16,3 C 0,5 C 88 % 91 % 1010,4 hPa 0,0 l/m 0,0 km/h (0 Bft) O-NO 67 0 min 13,8 C 16,3 C 0,0 km/h (0 Bft)
15.07.2021 07:25 15,8 C 20,2 C 16,4 C 16,4 C 16,4 C 0,6 C 88 % 91 % 1010,4 hPa 0,0 l/m 0,0 km/h (0 Bft) O-NO 67 0 min 13,8 C 16,4 C 0,0 km/h (0 Bft)
15.07.2021 07:30 15,9 C 20,2 C 16,4 C 16,4 C 16,4 C 0,5 C 88 % 91 % 1010,4 hPa 0,0 l/m 0,0 km/h (0 Bft) O-NO 67 0 min 13,9 C 16,4 C 0,0 km/h (0 Bft)
15.07.2021 07:35 15,9 C 20,2 C 16,5 C 16,6 C 16,6 C 0,7 C 88 % 91 % 1010,4 hPa 0,0 l/m 0,0 km/h (0 Bft) O-NO 67 0 min 13,9 C 16,6 C 0,0 km/h (0 Bft)
15.07.2021 07:40 16,0 C 20,2 C 16,7 C 16,9 C 16,9 C 0,9 C 88 % 92 % 1010,4 hPa 0,0 l/m 0,0 km/h (0 Bft) O-NO 67 0 min 14,0 C 16,9 C 0,0 km/h (0 Bft)
15.07.2021 07:45 16,1 C 20,1 C 16,7 C 17,2 C 17,2 C 1,1 C 88 % 92 % 1010,4 hPa 0,0 l/m 0,0 km/h (0 Bft) O-NO 67 0 min 14,1 C 17,2 C 0,0 km/h (0 Bft)
15.07.2021 07:50 16,0 C 20,1 C 16,8 C 17,5 C 17,5 C 1,5 C 88 % 92 % 1010,4 hPa 0,0 l/m 0,0 km/h (0 Bft) O-NO 67 0 min 14,0 C 17,5 C 0,0 km/h (0 Bft)
15.07.2021 07:55 16,1 C 20,1 C 17,0 C 18,3 C 18,3 C 2,2 C 88 % 92 % 1010,1 hPa 0,0 l/m 0,0 km/h (0 Bft) O-NO 67 0 min 14,1 C 18,3 C 0,0 km/h (0 Bft)
15.07.2021 08:00 16,2 C 20,1 C 17,1 C 18,7 C 18,7 C 2,5 C 88 % 92 % 1010,1 hPa 0,0 l/m 0,0 km/h (0 Bft) O-NO 67 0 min 14,2 C 18,7 C 0,0 km/h (0 Bft)
15.07.2021 08:05 16,4 C 20,1 C 17,3 C 19,1 C 19,1 C 2,7 C 87 % 91 % 1010,1 hPa 0,0 l/m 0,0 km/h (0 Bft) O-NO 67 0 min 14,2 C 19,1 C 0,0 km/h (0 Bft)
15.07.2021 08:10 16,5 C 20,1 C 17,3 C 19,2 C 19,2 C 2,7 C 87 % 91 % 1010,1 hPa 0,0 l/m 0,0 km/h (0 Bft) O-NO 67 0 min 14,3 C 19,2 C 0,0 km/h (0 Bft)
15.07.2021 08:15 16,7 C 20,1 C 17,3 C 19,2 C 19,2 C 2,5 C 87 % 91 % 1010,2 hPa 0,0 l/m 0,0 km/h (0 Bft) S-SW 202 0 min 14,5 C 19,2 C 0,0 km/h (0 Bft)
15.07.2021 08:20 16,8 C 20,1 C 17,4 C 19,4 C 19,4 C 2,6 C 87 % 91 % 1010,2 hPa 0,0 l/m 0,0 km/h (0 Bft) S-SW 202 0 min 14,6 C 19,4 C 0,0 km/h (0 Bft)
15.07.2021 08:25 17,1 C 20,1 C 17,5 C 19,5 C 19,5 C 2,4 C 87 % 91 % 1010,2 hPa 0,0 l/m 0,0 km/h (0 Bft) S-SW 202 0 min 14,9 C 19,5 C 0,0 km/h (0 Bft)
15.07.2021 08:30 17,2 C 20,1 C 17,5 C 19,6 C 19,6 C 2,4 C 87 % 91 % 1010,2 hPa 0,0 l/m 0,0 km/h (0 Bft) S-SW 202 0 min 15,0 C 19,6 C 0,0 km/h (0 Bft)
15.07.2021 08:35 17,5 C 20,0 C 17,6 C 19,9 C 19,9 C 2,4 C 87 % 91 % 1010,2 hPa 0,0 l/m 0,0 km/h (0 Bft) S-SW 202 0 min 15,3 C 19,9 C 0,0 km/h (0 Bft)
15.07.2021 08:40 17,5 C 20,0 C 17,7 C 20,3 C 20,3 C 2,8 C 87 % 91 % 1010,2 hPa 0,0 l/m 0,0 km/h (0 Bft) S-SW 202 0 min 15,3 C 20,3 C 0,0 km/h (0 Bft)
15.07.2021 08:45 17,9 C 19,9 C 18,1 C 21,3 C 21,3 C 3,4 C 87 % 91 % 1010,2 hPa 0,0 l/m 0,0 km/h (0 Bft) S-SW 202 5 min 15,7 C 21,3 C 0,0 km/h (0 Bft)
15.07.2021 08:50 18,0 C 19,9 C 18,3 C 21,9 C 21,9 C 3,9 C 87 % 90 % 1010,2 hPa 0,0 l/m 0,0 km/h (0 Bft) S-SW 202 5 min 15,8 C 21,9 C 0,0 km/h (0 Bft)
15.07.2021 08:55 18,4 C 19,9 C 18,4 C 22,4 C 22,4 C 4,0 C 87 % 90 % 1010,2 hPa 0,0 l/m 0,2 km/h (0 Bft) W 270 5 min 16,2 C 22,4 C 2,7 km/h (1 Bft)
15.07.2021 09:00 18,6 C 19,8 C 18,5 C 22,4 C 22,4 C 3,8 C 87 % 90 % 1010,2 hPa 0,0 l/m 0,2 km/h (0 Bft) W 270 5 min 16,4 C 22,4 C 1,6 km/h (1 Bft)
15.07.2021 09:05 18,9 C 19,7 C 18,6 C 22,8 C 22,8 C 3,9 C 86 % 89 % 1010,2 hPa 0,0 l/m 0,0 km/h (0 Bft) W 270 5 min 16,5 C 22,8 C 0,0 km/h (0 Bft)
15.07.2021 09:10 19,1 C 19,7 C 18,7 C 23,1 C 23,1 C 4,0 C 86 % 89 % 1010,2 hPa 0,0 l/m 0,2 km/h (0 Bft) SW 225 5 min 16,7 C 23,1 C 0,0 km/h (0 Bft)
15.07.2021 09:15 19,3 C 19,7 C 18,9 C 23,5 C 23,5 C 4,2 C 85 % 88 % 1010,1 hPa 0,0 l/m 0,2 km/h (0 Bft) SW 225 5 min 16,7 C 23,5 C 0,0 km/h (0 Bft)
15.07.2021 09:20 19,5 C 19,7 C 19,0 C 23,6 C 23,6 C 4,1 C 84 % 88 % 1010,1 hPa 0,0 l/m 0,2 km/h (0 Bft) W-SW 247 5 min 16,7 C 23,6 C 0,0 km/h (0 Bft)
15.07.2021 09:25 19,6 C 19,7 C 19,1 C 23,8 C 23,8 C 4,2 C 83 % 87 % 1010,1 hPa 0,0 l/m 0,2 km/h (0 Bft) S 180 5 min 16,6 C 23,8 C 4,5 km/h (1 Bft)
15.07.2021 09:30 19,6 C 19,7 C 19,3 C 24,2 C 24,2 C 4,6 C 82 % 87 % 1010,1 hPa 0,0 l/m 0,0 km/h (0 Bft) W 270 5 min 16,4 C 24,2 C 0,0 km/h (0 Bft)
15.07.2021 09:35 19,9 C 19,7 C 19,4 C 24,4 C 24,4 C 4,5 C 81 % 87 % 1010,4 hPa 0,0 l/m 0,0 km/h (0 Bft) S-SW 202 5 min 16,5 C 24,4 C 0,0 km/h (0 Bft)
15.07.2021 09:40 20,1 C 19,7 C 19,5 C 24,5 C 24,5 C 4,4 C 81 % 86 % 1010,4 hPa 0,0 l/m 0,2 km/h (0 Bft) NW 315 5 min 16,7 C 24,5 C 3,9 km/h (1 Bft)
15.07.2021 09:45 20,1 C 19,7 C 19,5 C 24,2 C 24,2 C 4,1 C 79 % 84 % 1010,4 hPa 0,0 l/m 0,6 km/h (0 Bft) W-NW 292 5 min 16,3 C 24,2 C 3,9 km/h (1 Bft)
15.07.2021 09:50 20,1 C 19,7 C 19,6 C 24,1 C 24,1 C 4,0 C 78 % 83 % 1010,4 hPa 0,0 l/m 0,8 km/h (0 Bft) SW 225 5 min 16,1 C 24,1 C 0,0 km/h (0 Bft)
15.07.2021 09:55 20,3 C 19,7 C 19,7 C 24,6 C 24,6 C 4,3 C 78 % 84 % 1011,1 hPa 0,0 l/m 0,3 km/h (0 Bft) SW 225 5 min 16,3 C 24,6 C 0,0 km/h (0 Bft)
15.07.2021 10:00 20,4 C 19,7 C 19,8 C 24,9 C 24,9 C 4,5 C 77 % 83 % 1011,1 hPa 0,0 l/m 0,0 km/h (0 Bft) W-SW 247 5 min 16,2 C 24,9 C 1,6 km/h (1 Bft)
15.07.2021 10:05 20,6 C 19,7 C 19,8 C 25,0 C 25,0 C 4,4 C 77 % 82 % 1011,1 hPa 0,0 l/m 0,2 km/h (0 Bft) S-SO 157 5 min 16,4 C 25,0 C 0,0 km/h (0 Bft)
15.07.2021 10:10 20,7 C 19,7 C 19,9 C 25,0 C 25,0 C 4,3 C 76 % 82 % 1011,1 hPa 0,0 l/m 0,2 km/h (0 Bft) S-SO 157 5 min 16,3 C 25,0 C 0,0 km/h (0 Bft)
15.07.2021 10:15 20,8 C 19,7 C 19,9 C 25,1 C 25,1 C 4,3 C 76 % 82 % 1010,8 hPa 0,0 l/m 0,2 km/h (0 Bft) NW 315 5 min 16,4 C 25,1 C 4,8 km/h (1 Bft)
15.07.2021 10:20 20,8 C 19,7 C 20,0 C 25,0 C 25,0 C 4,2 C 75 % 82 % 1010,8 hPa 0,0 l/m 0,3 km/h (0 Bft) W-SW 247 5 min 16,2 C 25,0 C 0,0 km/h (0 Bft)
15.07.2021 10:25 21,0 C 19,7 C 20,0 C 25,0 C 25,0 C 4,0 C 75 % 81 % 1010,8 hPa 0,0 l/m 0,3 km/h (0 Bft) S-SO 157 5 min 16,4 C 25,0 C 0,0 km/h (0 Bft)
15.07.2021 10:30 21,0 C 19,7 C 20,0 C 25,1 C 25,1 C 4,1 C 74 % 81 % 1010,8 hPa 0,0 l/m 0,0 km/h (0 Bft) S-SO 157 5 min 16,2 C 25,1 C 0,0 km/h (0 Bft)
15.07.2021 10:35 21,1 C 19,7 C 20,0 C 25,1 C 25,1 C 4,0 C 74 % 81 % 1011,0 hPa 0,0 l/m 0,0 km/h (0 Bft) S-SO 157 5 min 16,3 C 25,1 C 0,0 km/h (0 Bft)
15.07.2021 10:40 21,3 C 19,7 C 20,0 C 25,0 C 25,0 C 3,7 C 74 % 81 % 1011,0 hPa 0,0 l/m 0,0 km/h (0 Bft) W 270 5 min 16,5 C 25,0 C 0,0 km/h (0 Bft)
15.07.2021 10:45 21,2 C 19,7 C 20,1 C 25,0 C 25,0 C 3,8 C 73 % 82 % 1011,0 hPa 0,0 l/m 0,0 km/h (0 Bft) W-SW 247 5 min 16,2 C 25,0 C 0,0 km/h (0 Bft)
15.07.2021 10:50 21,2 C 19,7 C 20,2 C 25,0 C 25,0 C 3,8 C 73 % 82 % 1011,0 hPa 0,0 l/m 0,0 km/h (0 Bft) W-SW 247 5 min 16,2 C 25,0 C 0,0 km/h (0 Bft)
15.07.2021 10:55 21,3 C 19,7 C 20,4 C 26,5 C 26,5 C 5,2 C 72 % 81 % 1011,3 hPa 0,0 l/m 0,2 km/h (0 Bft) W-SW 247 5 min 16,0 C 26,5 C 0,0 km/h (0 Bft)
15.07.2021 11:00 21,3 C 19,7 C 20,5 C 28,6 C 28,6 C 7,3 C 72 % 81 % 1011,3 hPa 0,0 l/m 0,2 km/h (0 Bft) S 180 5 min 16,0 C 28,6 C 0,0 km/h (0 Bft)
15.07.2021 11:05 21,4 C 19,6 C 20,4 C 29,2 C 29,2 C 7,8 C 72 % 80 % 1011,3 hPa 0,0 l/m 0,5 km/h (0 Bft) S 180 5 min 16,1 C 29,2 C 0,0 km/h (0 Bft)
15.07.2021 11:10 21,7 C 19,6 C 20,4 C 28,6 C 28,6 C 6,9 C 72 % 78 % 1011,3 hPa 0,0 l/m 0,5 km/h (0 Bft) O-NO 67 5 min 16,4 C 28,6 C 1,9 km/h (1 Bft)
15.07.2021 11:15 21,5 C 19,6 C 20,3 C 27,9 C 27,9 C 6,4 C 70 % 77 % 1011,6 hPa 0,0 l/m 0,6 km/h (0 Bft) NO 45 5 min 15,8 C 27,9 C 0,0 km/h (0 Bft)
15.07.2021 11:20 21,5 C 19,6 C 20,3 C 26,6 C 26,6 C 5,1 C 70 % 77 % 1011,6 hPa 0,0 l/m 1,4 km/h (1 Bft) O-NO 67 5 min 15,8 C 26,6 C 3,1 km/h (1 Bft)
15.07.2021 11:25 21,4 C 19,6 C 20,4 C 26,5 C 26,5 C 5,1 C 70 % 77 % 1011,6 hPa 0,0 l/m 1,4 km/h (1 Bft) O-NO 67 5 min 15,7 C 26,5 C 0,0 km/h (0 Bft)
15.07.2021 11:30 21,5 C 19,6 C 20,3 C 26,4 C 26,4 C 4,9 C 70 % 77 % 1011,6 hPa 0,0 l/m 0,8 km/h (0 Bft) O 90 5 min 15,8 C 26,4 C 1,8 km/h (1 Bft)
15.07.2021 11:35 21,6 C 19,7 C 20,3 C 25,6 C 25,6 C 4,0 C 70 % 77 % 1011,4 hPa 0,0 l/m 1,1 km/h (1 Bft) O-NO 67 5 min 15,9 C 25,6 C 3,9 km/h (1 Bft)
15.07.2021 11:40 21,5 C 19,7 C 20,4 C 25,1 C 25,1 C 3,6 C 69 % 76 % 1011,4 hPa 0,0 l/m 1,9 km/h (1 Bft) O-NO 67 5 min 15,6 C 25,1 C 2,6 km/h (1 Bft)
15.07.2021 11:45 21,3 C 19,6 C 20,4 C 24,6 C 24,6 C 3,3 C 68 % 75 % 1011,4 hPa 0,0 l/m 1,9 km/h (1 Bft) O-NO 67 5 min 15,1 C 24,6 C 0,0 km/h (0 Bft)
15.07.2021 11:50 21,5 C 19,6 C 20,7 C 25,6 C 25,6 C 4,1 C 70 % 76 % 1011,4 hPa 0,0 l/m 1,0 km/h (0 Bft) SW 225 5 min 15,8 C 25,6 C 2,6 km/h (1 Bft)
15.07.2021 11:55 21,9 C 19,6 C 21,0 C 27,5 C 27,5 C 5,6 C 70 % 78 % 1011,6 hPa 0,0 l/m 0,2 km/h (0 Bft) W-SW 247 5 min 16,2 C 27,5 C 1,9 km/h (1 Bft)
15.07.2021 12:00 22,1 C 19,6 C 21,1 C 28,4 C 28,4 C 6,3 C 69 % 75 % 1011,6 hPa 0,0 l/m 0,3 km/h (0 Bft) W-SW 247 5 min 16,1 C 28,4 C 0,0 km/h (0 Bft)
15.07.2021 12:05 22,3 C 19,7 C 21,1 C 27,9 C 27,9 C 5,6 C 67 % 73 % 1011,6 hPa 0,0 l/m 0,6 km/h (0 Bft) W 270 5 min 15,9 C 27,9 C 2,7 km/h (1 Bft)
15.07.2021 12:10 22,3 C 19,6 C 21,0 C 27,1 C 27,1 C 4,8 C 66 % 71 % 1011,6 hPa 0,0 l/m 1,3 km/h (1 Bft) O-SO 112 5 min 15,6 C 27,1 C 2,7 km/h (1 Bft)
15.07.2021 12:15 22,0 C 19,7 C 21,0 C 26,0 C 26,0 C 4,0 C 67 % 73 % 1012,4 hPa 0,0 l/m 1,1 km/h (1 Bft) N-NO 22 5 min 15,6 C 26,0 C 0,0 km/h (0 Bft)
15.07.2021 12:20 22,2 C 19,7 C 20,9 C 26,0 C 26,0 C 3,8 C 66 % 73 % 1012,4 hPa 0,0 l/m 0,3 km/h (0 Bft) N-NO 22 5 min 15,5 C 26,0 C 0,0 km/h (0 Bft)
15.07.2021 12:25 22,2 C 19,6 C 20,9 C 25,4 C 25,4 C 3,2 C 64 % 70 % 1012,4 hPa 0,0 l/m 0,2 km/h (0 Bft) O 90 0 min 15,1 C 25,4 C 0,0 km/h (0 Bft)
15.07.2021 12:30 22,3 C 19,7 C 20,9 C 25,3 C 25,3 C 3,0 C 65 % 71 % 1012,4 hPa 0,0 l/m 0,2 km/h (0 Bft) O 90 0 min 15,4 C 25,3 C 0,0 km/h (0 Bft)
15.07.2021 12:35 22,3 C 19,7 C 21,0 C 25,2 C 25,2 C 2,9 C 65 % 72 % 1012,0 hPa 0,0 l/m 0,3 km/h (0 Bft) O 90 0 min 15,4 C 25,2 C 1,6 km/h (1 Bft)
15.07.2021 12:40 22,3 C 19,7 C 21,1 C 25,8 C 25,8 C 3,5 C 65 % 71 % 1012,0 hPa 0,0 l/m 0,3 km/h (0 Bft) O 90 5 min 15,4 C 25,8 C 0,0 km/h (0 Bft)
15.07.2021 12:45 22,7 C 19,7 C 21,6 C 27,3 C 27,3 C 4,6 C 64 % 70 % 1012,0 hPa 0,0 l/m 0,6 km/h (0 Bft) O-NO 67 5 min 15,5 C 27,3 C 0,0 km/h (0 Bft)
15.07.2021 12:50 22,9 C 19,7 C 21,8 C 28,7 C 28,7 C 5,8 C 63 % 68 % 1012,0 hPa 0,0 l/m 1,1 km/h (1 Bft) O-NO 67 5 min 15,5 C 28,7 C 0,0 km/h (0 Bft)
15.07.2021 12:55 23,2 C 19,7 C 21,7 C 29,1 C 29,1 C 5,9 C 64 % 70 % 1012,0 hPa 0,0 l/m 1,1 km/h (1 Bft) W-SW 247 5 min 16,0 C 29,1 C 6,4 km/h (2 Bft)
15.07.2021 13:00 23,5 C 19,7 C 21,6 C 29,7 C 29,7 C 6,2 C 64 % 70 % 1012,0 hPa 0,0 l/m 0,8 km/h (0 Bft) N-NO 22 5 min 16,3 C 29,7 C 0,0 km/h (0 Bft)
15.07.2021 13:05 23,7 C 19,7 C 21,7 C 29,0 C 29,0 C 5,3 C 64 % 71 % 1012,0 hPa 0,0 l/m 0,3 km/h (0 Bft) W 270 5 min 16,5 C 29,0 C 0,0 km/h (0 Bft)
15.07.2021 13:10 24,0 C 19,7 C 22,2 C 30,3 C 30,3 C 6,3 C 64 % 73 % 1012,0 hPa 0,0 l/m 0,3 km/h (0 Bft) NW 315 5 min 16,8 C 30,3 C 3,4 km/h (1 Bft)
15.07.2021 13:15 24,3 C 19,7 C 22,5 C 30,8 C 30,8 C 6,5 C 60 % 66 % 1011,6 hPa 0,0 l/m 1,8 km/h (1 Bft) W 270 5 min 16,0 C 30,8 C 3,4 km/h (1 Bft)
15.07.2021 13:20 24,1 C 19,8 C 22,3 C 30,7 C 30,7 C 6,6 C 61 % 68 % 1011,6 hPa 0,0 l/m 2,4 km/h (1 Bft) O-NO 67 5 min 16,1 C 30,7 C 2,6 km/h (1 Bft)
15.07.2021 13:25 24,1 C 19,8 C 22,1 C 29,5 C 29,5 C 5,4 C 61 % 68 % 1011,6 hPa 0,0 l/m 1,4 km/h (1 Bft) W-SW 247 5 min 16,1 C 29,5 C 0,0 km/h (0 Bft)
15.07.2021 13:30 24,3 C 19,8 C 22,5 C 30,5 C 30,5 C 6,2 C 62 % 68 % 1011,6 hPa 0,0 l/m 1,4 km/h (1 Bft) NW 315 5 min 16,5 C 30,5 C 3,4 km/h (1 Bft)
15.07.2021 13:35 24,7 C 19,8 C 22,6 C 30,7 C 30,7 C 6,0 C 61 % 66 % 1011,6 hPa 0,0 l/m 2,4 km/h (1 Bft) W 270 5 min 16,7 C 30,7 C 8,0 km/h (2 Bft)
15.07.2021 13:40 24,9 C 19,8 C 22,7 C 30,8 C 30,8 C 5,9 C 61 % 67 % 1011,6 hPa 0,0 l/m 2,7 km/h (1 Bft) O-NO 67 5 min 16,8 C 30,8 C 1,8 km/h (1 Bft)
15.07.2021 13:45 24,7 C 19,8 C 22,3 C 29,0 C 29,0 C 4,3 C 60 % 66 % 1011,6 hPa 0,0 l/m 1,3 km/h (1 Bft) NW 315 5 min 16,4 C 29,0 C 1,6 km/h (1 Bft)
15.07.2021 13:50 24,3 C 19,8 C 22,1 C 28,0 C 28,0 C 3,7 C 60 % 66 % 1011,6 hPa 0,0 l/m 0,6 km/h (0 Bft) O 90 5 min 16,0 C 28,0 C 0,0 km/h (0 Bft)
15.07.2021 13:55 23,9 C 19,8 C 22,3 C 27,6 C 27,6 C 3,7 C 61 % 69 % 1011,6 hPa 0,0 l/m 0,5 km/h (0 Bft) O 90 5 min 15,9 C 27,6 C 0,0 km/h (0 Bft)
15.07.2021 14:00 24,0 C 19,8 C 22,4 C 28,7 C 28,7 C 4,7 C 61 % 66 % 1011,6 hPa 0,0 l/m 0,8 km/h (0 Bft) O 90 5 min 16,0 C 28,7 C 3,1 km/h (1 Bft)
15.07.2021 14:05 24,1 C 19,8 C 22,7 C 29,8 C 29,8 C 5,7 C 63 % 70 % 1011,6 hPa 0,0 l/m 0,8 km/h (0 Bft) NW 315 5 min 16,6 C 29,8 C 0,0 km/h (0 Bft)
15.07.2021 14:10 24,5 C 19,8 C 22,7 C 30,7 C 30,7 C 6,2 C 62 % 67 % 1011,6 hPa 0,0 l/m 0,6 km/h (0 Bft) NW 315 5 min 16,7 C 30,7 C 0,0 km/h (0 Bft)
15.07.2021 14:15 24,4 C 19,9 C 22,6 C 29,2 C 29,2 C 4,8 C 61 % 68 % 1011,6 hPa 0,0 l/m 1,1 km/h (1 Bft) N-NO 22 5 min 16,4 C 29,2 C 0,0 km/h (0 Bft)
15.07.2021 14:20 24,3 C 19,8 C 22,9 C 28,7 C 28,7 C 4,4 C 62 % 67 % 1011,6 hPa 0,0 l/m 0,8 km/h (0 Bft) SO 135 5 min 16,5 C 28,7 C 1,6 km/h (1 Bft)
15.07.2021 14:25 24,3 C 19,9 C 22,7 C 28,6 C 28,6 C 4,3 C 61 % 66 % 1011,6 hPa 0,0 l/m 0,3 km/h (0 Bft) O 90 5 min 16,3 C 28,6 C 0,0 km/h (0 Bft)
15.07.2021 14:30 24,0 C 19,9 C 22,5 C 27,7 C 27,7 C 3,7 C 60 % 66 % 1011,6 hPa 0,0 l/m 1,3 km/h (1 Bft) O-NO 67 5 min 15,7 C 27,7 C 4,2 km/h (1 Bft)
15.07.2021 14:35 23,5 C 19,9 C 22,1 C 26,2 C 26,2 C 2,7 C 61 % 68 % 1011,2 hPa 0,0 l/m 1,6 km/h (1 Bft) W-NW 292 0 min 15,5 C 26,2 C 0,0 km/h (0 Bft)
15.07.2021 14:40 23,5 C 19,9 C 21,9 C 25,8 C 25,8 C 2,3 C 61 % 69 % 1011,2 hPa 0,0 l/m 1,0 km/h (0 Bft) W-NW 292 0 min 15,5 C 25,8 C 0,0 km/h (0 Bft)
15.07.2021 14:45 23,5 C 19,9 C 21,9 C 25,5 C 25,5 C 2,0 C 62 % 70 % 1011,2 hPa 0,0 l/m 0,0 km/h (0 Bft) W-NW 292 0 min 15,8 C 25,5 C 0,0 km/h (0 Bft)
15.07.2021 14:50 23,4 C 19,9 C 21,8 C 25,5 C 25,5 C 2,1 C 63 % 70 % 1011,2 hPa 0,0 l/m 0,0 km/h (0 Bft) W-NW 292 0 min 15,9 C 25,5 C 0,0 km/h (0 Bft)
15.07.2021 14:55 23,4 C 19,9 C 21,9 C 25,6 C 25,6 C 2,2 C 63 % 69 % 1011,3 hPa 0,0 l/m 0,0 km/h (0 Bft) W-NW 292 0 min 15,9 C 25,6 C 0,0 km/h (0 Bft)
15.07.2021 15:00 23,5 C 19,9 C 21,9 C 25,7 C 25,7 C 2,2 C 62 % 69 % 1011,3 hPa 0,0 l/m 0,0 km/h (0 Bft) W-NW 292 0 min 15,8 C 25,7 C 0,0 km/h (0 Bft)
15.07.2021 15:05 23,6 C 19,9 C 21,9 C 25,9 C 25,9 C 2,3 C 64 % 71 % 1011,3 hPa 0,0 l/m 0,0 km/h (0 Bft) W-NW 292 0 min 16,4 C 25,9 C 0,0 km/h (0 Bft)
15.07.2021 15:10 23,6 C 19,9 C 21,9 C 25,8 C 25,8 C 2,2 C 64 % 70 % 1011,3 hPa 0,0 l/m 0,0 km/h (0 Bft) W-NW 292 0 min 16,4 C 25,8 C 0,0 km/h (0 Bft)
15.07.2021 15:15 23,6 C 19,9 C 21,8 C 25,6 C 25,6 C 2,0 C 65 % 71 % 1011,5 hPa 0,0 l/m 0,0 km/h (0 Bft) W-NW 292 0 min 16,6 C 25,6 C 0,0 km/h (0 Bft)
15.07.2021 15:20 23,6 C 19,9 C 21,6 C 25,3 C 25,3 C 1,7 C 65 % 73 % 1011,5 hPa 0,0 l/m 0,0 km/h (0 Bft) W-NW 292 0 min 16,6 C 25,3 C 0,0 km/h (0 Bft)
15.07.2021 15:25 23,7 C 20,0 C 21,5 C 24,3 C 24,3 C 0,6 C 67 % 76 % 1011,5 hPa 0,0 l/m 0,0 km/h (0 Bft) W-NW 292 0 min 17,2 C 24,3 C 0,0 km/h (0 Bft)
15.07.2021 15:30 23,6 C 20,0 C 21,4 C 23,9 C 23,9 C 0,3 C 69 % 76 % 1011,5 hPa 0,0 l/m 0,0 km/h (0 Bft) W-NW 292 0 min 17,6 C 23,9 C 0,0 km/h (0 Bft)
15.07.2021 15:35 23,5 C 20,0 C 21,2 C 23,5 C 23,5 C 0,0 C 69 % 77 % 1011,6 hPa 0,0 l/m 0,0 km/h (0 Bft) W-NW 292 0 min 17,5 C 23,5 C 0,0 km/h (0 Bft)
15.07.2021 15:40 23,4 C 20,0 C 21,1 C 23,3 C 23,2 C 0,0 C 69 % 78 % 1011,6 hPa 0,0 l/m 0,0 km/h (0 Bft) W 270 0 min 17,4 C 23,2 C 0,0 km/h (0 Bft)
15.07.2021 15:45 22,8 C 20,0 C 20,7 C 22,6 C 22,3 C 0,0 C 68 % 78 % 1011,6 hPa 0,0 l/m 1,0 km/h (0 Bft) W-NW 292 0 min 16,6 C 22,3 C 0,0 km/h (0 Bft)
15.07.2021 15:50 22,5 C 20,0 C 20,5 C 22,2 C 21,7 C 0,0 C 69 % 78 % 1011,6 hPa 0,0 l/m 1,4 km/h (1 Bft) SW 225 0 min 16,5 C 21,7 C 0,0 km/h (0 Bft)
15.07.2021 15:55 22,0 C 20,0 C 20,2 C 21,7 C 21,2 C 0,0 C 69 % 78 % 1011,8 hPa 0,0 l/m 1,1 km/h (1 Bft) SO 135 0 min 16,0 C 21,2 C 0,0 km/h (0 Bft)
15.07.2021 16:00 21,8 C 20,0 C 20,2 C 21,6 C 21,2 C 0,0 C 70 % 79 % 1011,8 hPa 0,0 l/m 1,0 km/h (0 Bft) S-SO 157 0 min 16,1 C 21,2 C 0,0 km/h (0 Bft)
15.07.2021 16:05 21,5 C 20,0 C 20,3 C 21,3 C 21,0 C 0,0 C 71 % 79 % 1011,8 hPa 0,0 l/m 1,0 km/h (0 Bft) N-NW 337 0 min 16,0 C 21,0 C 1,8 km/h (1 Bft)
15.07.2021 16:10 21,2 C 20,1 C 20,3 C 21,1 C 20,9 C 0,0 C 72 % 80 % 1011,8 hPa 0,0 l/m 1,0 km/h (0 Bft) S-SO 157 0 min 15,9 C 20,9 C 0,0 km/h (0 Bft)
15.07.2021 16:15 21,2 C 20,1 C 20,4 C 21,4 C 21,4 C 0,2 C 74 % 81 % 1012,3 hPa 0,0 l/m 0,8 km/h (0 Bft) W-SW 247 0 min 16,4 C 21,4 C 1,8 km/h (1 Bft)
15.07.2021 16:20 21,2 C 20,2 C 20,3 C 22,0 C 22,0 C 0,8 C 74 % 81 % 1012,3 hPa 0,0 l/m 0,5 km/h (0 Bft) W-SW 247 0 min 16,4 C 22,0 C 0,0 km/h (0 Bft)
15.07.2021 16:25 21,2 C 20,2 C 20,4 C 22,9 C 22,9 C 1,7 C 74 % 81 % 1012,3 hPa 0,0 l/m 0,3 km/h (0 Bft) SO 135 0 min 16,4 C 22,9 C 0,0 km/h (0 Bft)
15.07.2021 16:30 21,3 C 20,2 C 20,4 C 23,4 C 23,4 C 2,1 C 75 % 80 % 1012,3 hPa 0,0 l/m 0,0 km/h (0 Bft) SO 135 0 min 16,7 C 23,4 C 0,0 km/h (0 Bft)
15.07.2021 16:35 21,3 C 20,1 C 20,5 C 23,2 C 23,2 C 1,9 C 76 % 82 % 1012,2 hPa 0,0 l/m 0,0 km/h (0 Bft) SW 225 0 min 16,9 C 23,2 C 0,0 km/h (0 Bft)
15.07.2021 16:40 21,5 C 20,1 C 20,6 C 22,8 C 22,8 C 1,3 C 76 % 82 % 1012,2 hPa 0,0 l/m 0,0 km/h (0 Bft) N-NO 22 0 min 17,1 C 22,8 C 0,0 km/h (0 Bft)
15.07.2021 16:45 21,7 C 20,1 C 20,7 C 22,7 C 22,7 C 1,0 C 76 % 83 % 1012,2 hPa 0,0 l/m 0,0 km/h (0 Bft) W-SW 247 0 min 17,3 C 22,7 C 0,0 km/h (0 Bft)
15.07.2021 16:50 21,7 C 20,1 C 20,7 C 23,0 C 23,0 C 1,3 C 76 % 82 % 1012,2 hPa 0,0 l/m 0,0 km/h (0 Bft) W-SW 247 0 min 17,3 C 23,0 C 0,0 km/h (0 Bft)
15.07.2021 16:55 21,9 C 20,1 C 20,8 C 23,7 C 23,7 C 1,8 C 75 % 81 % 1012,1 hPa 0,0 l/m 0,0 km/h (0 Bft) SW 225 0 min 17,3 C 23,7 C 0,0 km/h (0 Bft)
15.07.2021 17:00 21,9 C 20,1 C 21,0 C 25,0 C 25,0 C 3,1 C 75 % 82 % 1012,1 hPa 0,0 l/m 0,0 km/h (0 Bft) S-SW 202 0 min 17,3 C 25,0 C 0,0 km/h (0 Bft)
15.07.2021 17:05 22,1 C 20,1 C 21,3 C 27,0 C 27,0 C 4,9 C 74 % 81 % 1012,1 hPa 0,0 l/m 0,0 km/h (0 Bft) S 180 5 min 17,2 C 27,0 C 0,0 km/h (0 Bft)
15.07.2021 17:10 22,2 C 20,1 C 21,5 C 28,4 C 28,4 C 6,2 C 74 % 81 % 1012,1 hPa 0,0 l/m 0,0 km/h (0 Bft) S 180 5 min 17,3 C 28,4 C 0,0 km/h (0 Bft)
15.07.2021 17:15 22,3 C 20,1 C 21,5 C 30,1 C 30,1 C 7,8 C 72 % 78 % 1011,7 hPa 0,0 l/m 0,6 km/h (0 Bft) NO 45 5 min 17,0 C 30,1 C 0,0 km/h (0 Bft)
15.07.2021 17:20 22,2 C 20,1 C 21,4 C 29,9 C 29,9 C 7,7 C 72 % 78 % 1011,7 hPa 0,0 l/m 0,8 km/h (0 Bft) NO 45 5 min 16,9 C 29,9 C 2,6 km/h (1 Bft)
15.07.2021 17:25 22,1 C 20,1 C 21,4 C 29,6 C 29,6 C 7,5 C 71 % 74 % 1011,7 hPa 0,0 l/m 1,0 km/h (0 Bft) N-NW 337 5 min 16,6 C 29,6 C 3,4 km/h (1 Bft)
15.07.2021 17:30 22,1 C 20,1 C 21,4 C 29,5 C 29,5 C 7,4 C 71 % 75 % 1011,7 hPa 0,0 l/m 1,1 km/h (1 Bft) W-SW 247 5 min 16,6 C 29,5 C 0,0 km/h (0 Bft)
15.07.2021 17:35 22,4 C 20,1 C 21,5 C 29,6 C 29,6 C 7,2 C 71 % 78 % 1011,4 hPa 0,0 l/m 0,6 km/h (0 Bft) W-SW 247 5 min 16,9 C 29,6 C 0,0 km/h (0 Bft)
15.07.2021 17:40 22,7 C 20,1 C 21,7 C 29,5 C 29,5 C 6,8 C 70 % 76 % 1011,4 hPa 0,0 l/m 0,8 km/h (0 Bft) SW 225 5 min 16,9 C 29,5 C 2,3 km/h (1 Bft)
15.07.2021 17:45 22,9 C 20,1 C 21,8 C 29,6 C 29,6 C 6,7 C 69 % 77 % 1011,4 hPa 0,0 l/m 0,8 km/h (0 Bft) SW 225 5 min 16,9 C 29,6 C 0,0 km/h (0 Bft)
15.07.2021 17:50 23,1 C 20,1 C 21,8 C 29,7 C 29,7 C 6,6 C 68 % 75 % 1011,4 hPa 0,0 l/m 0,3 km/h (0 Bft) NW 315 5 min 16,9 C 29,7 C 0,0 km/h (0 Bft)
15.07.2021 17:55 23,1 C 20,1 C 21,9 C 28,7 C 28,7 C 5,6 C 67 % 76 % 1011,4 hPa 0,0 l/m 0,8 km/h (0 Bft) W-SW 247 5 min 16,6 C 28,7 C 2,9 km/h (1 Bft)
15.07.2021 18:00 23,0 C 20,1 C 21,9 C 27,6 C 27,6 C 4,6 C 66 % 74 % 1011,4 hPa 0,0 l/m 1,3 km/h (1 Bft) SW 225 5 min 16,3 C 27,6 C 0,0 km/h (0 Bft)
15.07.2021 18:05 23,1 C 20,1 C 21,9 C 26,2 C 26,2 C 3,1 C 66 % 72 % 1011,4 hPa 0,0 l/m 1,4 km/h (1 Bft) NO 45 0 min 16,4 C 26,2 C 1,6 km/h (1 Bft)
15.07.2021 18:10 23,0 C 20,1 C 21,8 C 25,4 C 25,4 C 2,4 C 65 % 70 % 1011,4 hPa 0,0 l/m 0,8 km/h (0 Bft) O-SO 112 0 min 16,1 C 25,4 C 0,0 km/h (0 Bft)
15.07.2021 18:15 23,1 C 20,1 C 21,8 C 25,1 C 25,1 C 2,0 C 64 % 69 % 1011,5 hPa 0,0 l/m 0,3 km/h (0 Bft) O-NO 67 0 min 15,9 C 25,1 C 0,0 km/h (0 Bft)
15.07.2021 18:20 22,9 C 20,1 C 21,8 C 24,8 C 24,8 C 1,9 C 65 % 70 % 1011,5 hPa 0,0 l/m 0,3 km/h (0 Bft) NO 45 0 min 16,0 C 24,8 C 0,0 km/h (0 Bft)
15.07.2021 18:25 22,9 C 20,1 C 21,9 C 25,1 C 25,1 C 2,2 C 65 % 71 % 1011,5 hPa 0,0 l/m 0,8 km/h (0 Bft) NW 315 0 min 16,0 C 25,1 C 2,1 km/h (1 Bft)
15.07.2021 18:30 23,0 C 20,1 C 21,9 C 25,7 C 25,7 C 2,7 C 65 % 70 % 1011,5 hPa 0,0 l/m 1,0 km/h (0 Bft) W-SW 247 0 min 16,1 C 25,7 C 1,8 km/h (1 Bft)
15.07.2021 18:35 23,1 C 20,1 C 21,9 C 26,8 C 26,8 C 3,7 C 65 % 68 % 1011,4 hPa 0,0 l/m 1,3 km/h (1 Bft) W-NW 292 5 min 16,2 C 26,8 C 3,1 km/h (1 Bft)
15.07.2021 18:40 23,1 C 20,1 C 21,9 C 27,1 C 27,1 C 4,0 C 64 % 69 % 1011,4 hPa 0,0 l/m 1,4 km/h (1 Bft) NW 315 5 min 15,9 C 27,1 C 0,0 km/h (0 Bft)
15.07.2021 18:45 23,1 C 20,1 C 21,9 C 27,6 C 27,6 C 4,5 C 65 % 70 % 1011,4 hPa 0,0 l/m 1,3 km/h (1 Bft) W-NW 292 5 min 16,2 C 27,6 C 0,0 km/h (0 Bft)
15.07.2021 18:50 23,2 C 20,1 C 22,0 C 27,7 C 27,7 C 4,5 C 65 % 72 % 1011,4 hPa 0,0 l/m 0,6 km/h (0 Bft) W 270 5 min 16,2 C 27,7 C 1,8 km/h (1 Bft)
15.07.2021 18:55 23,3 C 20,2 C 22,1 C 27,5 C 27,5 C 4,2 C 63 % 70 % 1011,4 hPa 0,0 l/m 0,6 km/h (0 Bft) NW 315 5 min 15,9 C 27,5 C 0,0 km/h (0 Bft)
15.07.2021 19:00 23,5 C 20,2 C 22,1 C 28,1 C 28,1 C 4,6 C 64 % 69 % 1011,4 hPa 0,0 l/m 0,5 km/h (0 Bft) W-NW 292 5 min 16,3 C 28,1 C 0,0 km/h (0 Bft)
15.07.2021 19:05 23,5 C 20,2 C 22,1 C 29,2 C 29,2 C 5,7 C 62 % 68 % 1011,4 hPa 0,0 l/m 0,3 km/h (0 Bft) W-NW 292 5 min 15,8 C 29,2 C 2,1 km/h (1 Bft)
15.07.2021 19:10 23,5 C 20,2 C 22,1 C 28,7 C 28,7 C 5,2 C 62 % 68 % 1011,4 hPa 0,0 l/m 0,3 km/h (0 Bft) N 360 5 min 15,8 C 28,7 C 0,0 km/h (0 Bft)
15.07.2021 19:15 23,5 C 20,2 C 22,1 C 27,4 C 27,4 C 3,9 C 62 % 68 % 1011,6 hPa 0,0 l/m 0,2 km/h (0 Bft) W 270 5 min 15,8 C 27,4 C 0,0 km/h (0 Bft)
15.07.2021 19:20 23,7 C 20,2 C 22,1 C 27,0 C 27,0 C 3,3 C 62 % 69 % 1011,6 hPa 0,0 l/m 0,0 km/h (0 Bft) W 270 5 min 16,0 C 27,0 C 0,0 km/h (0 Bft)
15.07.2021 19:25 23,7 C 20,2 C 22,1 C 27,7 C 27,7 C 4,0 C 62 % 69 % 1011,6 hPa 0,0 l/m 0,0 km/h (0 Bft) O-SO 112 5 min 16,0 C 27,7 C 1,6 km/h (1 Bft)
15.07.2021 19:30 23,8 C 20,2 C 22,1 C 28,6 C 28,6 C 4,8 C 61 % 68 % 1011,6 hPa 0,0 l/m 0,0 km/h (0 Bft) N-NO 22 5 min 15,8 C 28,6 C 0,0 km/h (0 Bft)
15.07.2021 19:35 23,8 C 20,2 C 22,0 C 28,5 C 28,5 C 4,7 C 60 % 69 % 1011,4 hPa 0,0 l/m 0,0 km/h (0 Bft) N-NO 22 5 min 15,6 C 28,5 C 0,0 km/h (0 Bft)
15.07.2021 19:40 23,8 C 20,2 C 21,9 C 28,3 C 28,3 C 4,5 C 61 % 68 % 1011,4 hPa 0,0 l/m 0,0 km/h (0 Bft) N-NO 22 5 min 15,8 C 28,3 C 0,0 km/h (0 Bft)
15.07.2021 19:45 23,8 C 20,2 C 22,1 C 28,7 C 28,7 C 4,9 C 60 % 69 % 1011,4 hPa 0,0 l/m 0,0 km/h (0 Bft) N-NO 22 5 min 15,6 C 28,7 C 0,0 km/h (0 Bft)
15.07.2021 19:50 23,9 C 20,2 C 22,0 C 29,2 C 29,2 C 5,3 C 61 % 70 % 1011,4 hPa 0,0 l/m 0,0 km/h (0 Bft) N-NO 22 5 min 15,9 C 29,2 C 0,0 km/h (0 Bft)
15.07.2021 19:55 23,9 C 20,2 C 21,9 C 28,9 C 28,9 C 5,0 C 61 % 70 % 1011,8 hPa 0,0 l/m 0,0 km/h (0 Bft) N-NO 22 5 min 15,9 C 28,9 C 0,0 km/h (0 Bft)
15.07.2021 20:00 23,8 C 20,2 C 21,8 C 28,7 C 28,7 C 4,9 C 61 % 71 % 1011,8 hPa 0,0 l/m 0,0 km/h (0 Bft) N-NO 22 5 min 15,8 C 28,7 C 0,0 km/h (0 Bft)
15.07.2021 20:05 23,7 C 20,2 C 21,7 C 28,8 C 28,8 C 5,1 C 62 % 71 % 1011,8 hPa 0,0 l/m 0,0 km/h (0 Bft) N-NO 22 5 min 16,0 C 28,8 C 0,0 km/h (0 Bft)
15.07.2021 20:10 23,6 C 20,2 C 21,7 C 28,7 C 28,7 C 5,1 C 62 % 71 % 1011,8 hPa 0,0 l/m 0,0 km/h (0 Bft) N-NO 22 5 min 15,9 C 28,7 C 0,0 km/h (0 Bft)
15.07.2021 20:15 23,6 C 20,2 C 21,7 C 28,5 C 28,5 C 4,9 C 63 % 72 % 1012,0 hPa 0,0 l/m 0,0 km/h (0 Bft) N-NO 22 5 min 16,1 C 28,5 C 0,0 km/h (0 Bft)
15.07.2021 20:20 23,5 C 20,2 C 21,5 C 28,2 C 28,2 C 4,7 C 63 % 73 % 1012,0 hPa 0,0 l/m 0,0 km/h (0 Bft) N-NO 22 5 min 16,0 C 28,2 C 0,0 km/h (0 Bft)
15.07.2021 20:25 23,4 C 20,3 C 21,4 C 27,1 C 27,1 C 3,7 C 63 % 72 % 1012,0 hPa 0,0 l/m 0,0 km/h (0 Bft) N-NO 22 5 min 15,9 C 27,1 C 0,0 km/h (0 Bft)
15.07.2021 20:30 23,3 C 20,3 C 21,3 C 26,1 C 26,1 C 2,8 C 63 % 74 % 1012,0 hPa 0,0 l/m 0,0 km/h (0 Bft) N-NO 22 5 min 15,9 C 26,1 C 0,0 km/h (0 Bft)
15.07.2021 20:35 23,1 C 20,3 C 21,0 C 24,8 C 24,8 C 1,7 C 65 % 74 % 1012,1 hPa 0,0 l/m 0,0 km/h (0 Bft) N-NO 22 5 min 16,2 C 24,8 C 0,0 km/h (0 Bft)
15.07.2021 20:40 22,9 C 20,3 C 20,9 C 24,0 C 24,0 C 1,1 C 65 % 75 % 1012,1 hPa 0,0 l/m 0,0 km/h (0 Bft) N-NO 22 5 min 16,0 C 24,0 C 0,0 km/h (0 Bft)
15.07.2021 20:45 22,7 C 20,3 C 20,7 C 22,9 C 22,9 C 0,2 C 66 % 76 % 1012,1 hPa 0,0 l/m 0,0 km/h (0 Bft) N-NO 22 0 min 16,0 C 22,9 C 0,0 km/h (0 Bft)
15.07.2021 20:50 22,5 C 20,3 C 20,5 C 22,5 C 22,4 C 0,0 C 66 % 76 % 1012,1 hPa 0,0 l/m 0,0 km/h (0 Bft) N-NO 22 0 min 15,8 C 22,4 C 0,0 km/h (0 Bft)
15.07.2021 20:55 22,2 C 20,3 C 20,3 C 22,0 C 21,7 C 0,0 C 67 % 77 % 1012,2 hPa 0,0 l/m 0,0 km/h (0 Bft) N-NO 22 0 min 15,8 C 21,7 C 0,0 km/h (0 Bft)
15.07.2021 21:00 22,0 C 20,3 C 20,2 C 21,8 C 21,3 C 0,0 C 68 % 78 % 1012,2 hPa 0,0 l/m 0,0 km/h (0 Bft) N-NO 22 0 min 15,8 C 21,3 C 0,0 km/h (0 Bft)
15.07.2021 21:05 21,9 C 20,3 C 20,1 C 21,6 C 20,9 C 0,0 C 69 % 79 % 1012,2 hPa 0,0 l/m 0,0 km/h (0 Bft) N-NO 22 0 min 15,9 C 20,9 C 0,0 km/h (0 Bft)
15.07.2021 21:10 21,7 C 20,3 C 20,0 C 21,3 C 20,5 C 0,0 C 69 % 80 % 1012,2 hPa 0,0 l/m 0,0 km/h (0 Bft) N-NO 22 0 min 15,8 C 20,5 C 0,0 km/h (0 Bft)
15.07.2021 21:15 21,5 C 20,4 C 19,9 C 21,1 C 20,2 C 0,0 C 71 % 80 % 1012,6 hPa 0,0 l/m 0,0 km/h (0 Bft) N-NO 22 0 min 16,0 C 20,2 C 0,0 km/h (0 Bft)
15.07.2021 21:20 21,3 C 20,4 C 19,8 C 20,9 C 20,1 C 0,0 C 72 % 81 % 1012,6 hPa 0,0 l/m 0,0 km/h (0 Bft) N-NO 22 0 min 16,0 C 20,1 C 0,0 km/h (0 Bft)
15.07.2021 21:25 21,1 C 20,4 C 19,6 C 20,7 C 19,8 C 0,0 C 73 % 81 % 1012,6 hPa 0,0 l/m 0,0 km/h (0 Bft) N-NO 22 0 min 16,1 C 19,8 C 0,0 km/h (0 Bft)
15.07.2021 21:30 20,9 C 20,5 C 19,5 C 20,5 C 19,6 C 0,0 C 74 % 81 % 1012,6 hPa 0,0 l/m 0,0 km/h (0 Bft) N-NO 22 0 min 16,1 C 19,6 C 0,0 km/h (0 Bft)
15.07.2021 21:35 20,7 C 20,5 C 19,3 C 20,3 C 19,4 C 0,0 C 74 % 83 % 1012,6 hPa 0,0 l/m 0,0 km/h (0 Bft) N-NO 22 0 min 15,9 C 19,4 C 0,0 km/h (0 Bft)
15.07.2021 21:40 20,4 C 20,6 C 19,3 C 20,0 C 19,3 C 0,0 C 75 % 83 % 1012,6 hPa 0,0 l/m 0,0 km/h (0 Bft) N-NO 22 0 min 15,8 C 19,3 C 0,0 km/h (0 Bft)
15.07.2021 21:45 20,3 C 20,6 C 19,2 C 19,9 C 19,1 C 0,0 C 76 % 83 % 1012,6 hPa 0,0 l/m 0,0 km/h (0 Bft) N-NO 22 0 min 15,9 C 19,1 C 0,0 km/h (0 Bft)
15.07.2021 21:50 20,3 C 20,6 C 19,1 C 19,9 C 19,1 C 0,0 C 76 % 83 % 1012,6 hPa 0,0 l/m 0,0 km/h (0 Bft) N-NO 22 0 min 15,9 C 19,1 C 0,0 km/h (0 Bft)
15.07.2021 21:55 20,1 C 20,6 C 19,0 C 19,7 C 19,0 C 0,0 C 77 % 84 % 1012,9 hPa 0,0 l/m 0,0 km/h (0 Bft) N-NO 22 0 min 15,9 C 19,0 C 0,0 km/h (0 Bft)
15.07.2021 22:00 19,9 C 20,6 C 18,9 C 19,6 C 19,0 C 0,0 C 78 % 84 % 1012,9 hPa 0,0 l/m 0,0 km/h (0 Bft) N-NO 22 0 min 15,9 C 19,0 C 0,0 km/h (0 Bft)
15.07.2021 22:05 19,8 C 20,5 C 18,8 C 19,5 C 18,9 C 0,0 C 78 % 84 % 1012,9 hPa 0,0 l/m 0,0 km/h (0 Bft) N-NO 22 0 min 15,8 C 18,9 C 0,0 km/h (0 Bft)
15.07.2021 22:10 19,7 C 20,5 C 18,7 C 19,4 C 18,7 C 0,0 C 78 % 84 % 1012,9 hPa 0,0 l/m 0,0 km/h (0 Bft) N-NO 22 0 min 15,8 C 18,7 C 0,0 km/h (0 Bft)
15.07.2021 22:15 19,6 C 20,5 C 18,6 C 19,3 C 18,6 C 0,0 C 79 % 85 % 1013,1 hPa 0,0 l/m 0,0 km/h (0 Bft) N-NO 22 0 min 15,9 C 18,6 C 0,0 km/h (0 Bft)
15.07.2021 22:20 19,5 C 20,6 C 18,5 C 19,2 C 18,5 C 0,0 C 79 % 84 % 1013,1 hPa 0,0 l/m 0,0 km/h (0 Bft) N-NO 22 0 min 15,8 C 18,5 C 0,0 km/h (0 Bft)
15.07.2021 22:25 19,5 C 20,6 C 18,5 C 19,1 C 18,4 C 0,0 C 79 % 85 % 1013,1 hPa 0,0 l/m 0,0 km/h (0 Bft) N-NO 22 0 min 15,8 C 18,4 C 0,0 km/h (0 Bft)
15.07.2021 22:30 19,3 C 20,6 C 18,5 C 19,0 C 18,4 C 0,0 C 79 % 85 % 1013,1 hPa 0,0 l/m 0,0 km/h (0 Bft) N-NO 22 0 min 15,6 C 18,4 C 0,0 km/h (0 Bft)
15.07.2021 22:35 19,2 C 20,6 C 18,4 C 18,9 C 18,2 C 0,0 C 79 % 85 % 1013,1 hPa 0,0 l/m 0,0 km/h (0 Bft) N-NO 22 0 min 15,5 C 18,2 C 0,0 km/h (0 Bft)
15.07.2021 22:40 19,2 C 20,6 C 18,3 C 18,9 C 18,2 C 0,0 C 80 % 85 % 1013,1 hPa 0,0 l/m 0,0 km/h (0 Bft) N-NO 22 0 min 15,7 C 18,2 C 0,0 km/h (0 Bft)
15.07.2021 22:45 19,1 C 20,6 C 18,3 C 18,8 C 18,1 C 0,0 C 80 % 86 % 1013,1 hPa 0,0 l/m 0,0 km/h (0 Bft) N-NO 22 0 min 15,6 C 18,1 C 0,0 km/h (0 Bft)
15.07.2021 22:50 19,1 C 20,6 C 18,3 C 18,7 C 18,0 C 0,0 C 80 % 86 % 1013,1 hPa 0,0 l/m 0,0 km/h (0 Bft) N-NO 22 0 min 15,6 C 18,0 C 0,0 km/h (0 Bft)
15.07.2021 22:55 18,9 C 20,6 C 18,2 C 18,6 C 17,9 C 0,0 C 80 % 86 % 1013,3 hPa 0,0 l/m 0,0 km/h (0 Bft) N-NO 22 0 min 15,4 C 17,9 C 0,0 km/h (0 Bft)
15.07.2021 23:00 18,9 C 20,7 C 18,1 C 18,6 C 17,9 C 0,0 C 80 % 87 % 1013,3 hPa 0,0 l/m 0,0 km/h (0 Bft) N-NO 22 0 min 15,4 C 17,9 C 0,0 km/h (0 Bft)
15.07.2021 23:05 18,8 C 20,7 C 18,0 C 18,5 C 17,8 C 0,0 C 81 % 87 % 1013,3 hPa 0,0 l/m 0,0 km/h (0 Bft) N-NO 22 0 min 15,5 C 17,8 C 0,0 km/h (0 Bft)
15.07.2021 23:10 18,7 C 20,7 C 17,9 C 18,4 C 17,7 C 0,0 C 81 % 87 % 1013,3 hPa 0,0 l/m 0,0 km/h (0 Bft) N-NO 22 0 min 15,4 C 17,7 C 0,0 km/h (0 Bft)
15.07.2021 23:15 18,7 C 20,7 C 17,9 C 18,3 C 17,5 C 0,0 C 82 % 87 % 1013,4 hPa 0,0 l/m 0,0 km/h (0 Bft) N-NO 22 0 min 15,6 C 17,5 C 0,0 km/h (0 Bft)
15.07.2021 23:20 18,5 C 20,7 C 17,7 C 18,1 C 17,4 C 0,0 C 82 % 87 % 1013,4 hPa 0,0 l/m 0,0 km/h (0 Bft) N-NO 22 0 min 15,4 C 17,4 C 0,0 km/h (0 Bft)
15.07.2021 23:25 18,4 C 20,7 C 17,7 C 18,0 C 17,2 C 0,0 C 82 % 87 % 1013,4 hPa 0,0 l/m 0,0 km/h (0 Bft) N-NO 22 0 min 15,3 C 17,2 C 0,0 km/h (0 Bft)
15.07.2021 23:30 18,3 C 20,7 C 17,6 C 17,9 C 17,0 C 0,0 C 82 % 88 % 1013,4 hPa 0,0 l/m 0,0 km/h (0 Bft) N-NO 22 0 min 15,2 C 17,0 C 0,0 km/h (0 Bft)
15.07.2021 23:35 18,3 C 20,7 C 17,5 C 17,8 C 16,8 C 0,0 C 82 % 88 % 1013,4 hPa 0,0 l/m 0,0 km/h (0 Bft) N-NO 22 0 min 15,2 C 16,8 C 0,0 km/h (0 Bft)
15.07.2021 23:40 18,1 C 20,7 C 17,4 C 17,7 C 16,8 C 0,0 C 82 % 88 % 1013,4 hPa 0,0 l/m 0,0 km/h (0 Bft) N-NO 22 0 min 15,0 C 16,8 C 0,0 km/h (0 Bft)
15.07.2021 23:45 18,0 C 20,8 C 17,3 C 17,5 C 16,6 C 0,0 C 83 % 88 % 1013,4 hPa 0,0 l/m 0,0 km/h (0 Bft) N-NO 22 0 min 15,1 C 16,6 C 0,0 km/h (0 Bft)
15.07.2021 23:50 17,9 C 20,8 C 17,2 C 17,5 C 16,6 C 0,0 C 83 % 88 % 1013,4 hPa 0,0 l/m 0,0 km/h (0 Bft) N-NO 22 0 min 15,0 C 16,6 C 0,0 km/h (0 Bft)
15.07.2021 23:55 17,9 C 20,8 C 17,1 C 17,4 C 16,5 C 0,0 C 83 % 89 % 1013,4 hPa 0,0 l/m 0,0 km/h (0 Bft) N-NO 22 0 min 15,0 C 16,5 C 0,0 km/h (0 Bft)
_ Min-Zeit 05:40 11:05 01:25 01:25 00:35 00:00 13:15 13:15 00:15 - 00:00 - - - 05:40 00:35 00:00
Minimum _ 15,3 C 19,6 C 15,3 C 15,3 C 14,7 C 0,0 C 60 % 66 % 1008,6 hPa - 0,0 km/h (0 Bft) - - - 13,1 C 14,7 C 0,0 km/h (0 Bft)
_ Max-Zeit 13:40 23:45 14:20 13:15 13:15 11:05 04:00 05:30 23:15 00:00 13:40 - - 08:45 15:30 13:15 13:35
Maximum _ 24,9 C 20,8 C 22,9 C 30,8 C 30,8 C 7,8 C 88 % 92 % 1013,4 hPa 0,0 l/m 2,7 km/h
O-NO (1 Bft)
- - 5 min 17,6 C 30,8 C 8,0 km/h
W (2 Bft)
Durchschnitt _ 19,6 C 20,2 C 18,9 C 21,7 C 21,5 C 2,1 C 76 % 82 % 1011,1 hPa #0,0 l/m 0,3 km/h (0 Bft) O-NO - #8:45 h 15,2 C 21,5 C 0,4 km/h (0 Bft)
2021 www.wetterstation-wechselburg.de